GW2497 Weather Reports


time (UTC)temp
C
wind
direction
speed
KPH
gust
KPH
rain 1hr
cm
rain 24hr
cm
rain mn
cm
humidity
%
barometer
mb
20260510171505 29 355 1.6 6.4 0.00 1.07 0.00 72 1015.5
20260510171004 29 360 1.6 9.7 0.00 1.07 0.00 72 1015.5
20260510170505 30 29 1.6 9.7 0.00 1.07 0.00 70 1015.5
20260510170006 30 329 3.2 6.4 0.00 1.07 0.00 70 1015.7
20260510165503 30 319 0.0 8.0 0.00 1.07 0.00 70 1015.6
20260510165006 30 167 1.6 8.0 0.00 1.07 0.00 68 1015.6
20260510164507 30 297 1.6 6.4 0.00 1.07 0.00 69 1015.7
20260510164003 30 334 1.6 6.4 0.00 1.07 0.00 70 1015.8
20260510163503 30 180 0.0 6.4 0.00 1.07 0.00 70 1016.0
20260510163004 30 140 1.6 6.4 0.00 1.07 0.00 72 1016.2
20260510162504 29 128 1.6 8.0 0.00 1.07 0.00 69 1016.0
20260510162003 28 188 0.0 8.0 0.00 1.07 0.00 73 1016.2
20260510161505 28 27 0.0 6.4 0.00 1.07 0.00 75 1016.1
20260510161003 28 175 0.0 3.2 0.00 1.07 0.00 76 1016.3
20260510160503 28 276 0.0 8.0 0.00 1.07 0.00 79 1016.3
20260510160010 28 65 1.6 8.0 0.00 1.07 0.00 79 1016.3
20260510155503 28 146 3.2 8.0 0.00 1.07 0.00 78 1016.2
20260510155003 28 20 0.0 6.4 0.00 1.07 0.00 80 1016.3
20260510154503 28 296 0.0 9.7 0.00 1.07 0.00 80 1016.3
20260510154002 28 199 4.8 9.7 0.00 1.07 0.00 80 1016.4
20260510153505 28 167 1.6 8.0 0.00 1.07 0.00 80 1016.5
20260510153004 28 182 3.2 8.0 0.00 1.07 0.00 81 1016.5
20260510152503 27 298 0.0 9.7 0.00 1.07 0.00 81 1016.4
20260510152003 27 186 1.6 9.7 0.00 1.07 0.00 81 1016.4
20260510151503 27 315 0.0 9.7 0.00 1.07 0.00 83 1016.3
20260510151005 27 191 0.0 4.8 0.00 1.07 0.00 83 1016.4
20260510150504 27 311 0.0 4.8 0.00 1.07 0.00 83 1016.3
20260510150006 27 360 0.0 4.8 0.00 1.07 0.00 86 1016.2
20260510145504 26 150 0.0 4.8 0.00 1.07 0.00 87 1016.2
20260510145003 26 296 1.6 4.8 0.00 1.07 0.00 88 1016.2
20260510144503 26 213 0.0 3.2 0.00 1.07 0.00 88 1016.2
20260510144003 26 273 0.0 3.2 0.00 1.07 0.00 88 1016.1
20260510143503 26 171 0.0 6.4 0.00 1.07 0.00 89 1016.2
20260510143003 26 209 0.0 6.4 0.00 1.07 0.00 90 1016.2
20260510142505 26 217 0.0 4.8 0.00 1.07 0.00 92 1016.2
20260510142003 25 290 0.0 4.8 0.00 1.07 0.00 93 1016.1
20260510141503 25 340 0.0 4.8 0.00 1.07 0.00 95 1016.1
20260510141002 25 291 0.0 4.8 0.00 1.07 0.00 97 1016.1
20260510140507 24 310 0.0 8.0 0.00 1.07 0.00 98 1015.9
20260510140005 24 133 0.0 8.0 0.00 1.07 0.00 98 1015.9
20260510135505 24 178 0.0 3.2 0.00 1.07 0.00 99 1015.7
20260510135004 23 182 1.6 6.4 0.00 1.07 0.00 99 1015.8
20260510134504 23 141 0.0 4.8 0.00 1.07 0.00 99 1015.7
20260510134003 23 177 0.0 3.2 0.00 1.07 0.00 99 1015.7
20260510133503 23 192 0.0 3.2 0.00 1.07 0.00 99 1015.6
20260510133003 23 311 0.0 0.0 0.00 1.07 0.00 99 1015.6
20260510132504 23 268 0.0 0.0 0.00 1.07 0.00 99 1015.7
20260510132004 23 238 0.0 0.0 0.00 1.07 0.00 99 1015.7
20260510131504 23 167 0.0 0.0 0.00 1.07 0.00 99 1015.6
20260510131003 23 159 0.0 0.0 0.00 1.07 0.00 99 1015.5
20260510130503 23 159 0.0 0.0 0.00 1.07 0.00 99 1015.5
20260510130012 23 122 0.0 0.0 0.00 1.07 0.00 99 1015.5
20260510125503 22 52 0.0 0.0 0.00 1.07 0.00 99 1015.5
20260510125004 22 48 0.0 0.0 0.00 1.07 0.00 99 1015.5
20260510124504 22 48 0.0 0.0 0.00 1.07 0.00 99 1015.4
20260510124003 22 48 0.0 0.0 0.00 1.07 0.00 99 1015.5
20260510123505 22 48 0.0 0.0 0.00 1.07 0.00 99 1015.5
20260510123003 22 48 0.0 0.0 0.00 1.07 0.00 99 1015.3
20260510122503 22 48 0.0 0.0 0.00 1.07 0.00 99 1015.3
20260510122003 21 48 0.0 0.0 0.00 1.07 0.00 99 1015.3
20260510121505 21 48 0.0 0.0 0.00 1.07 0.00 99 1015.1
20260510121004 21 48 0.0 0.0 0.00 1.07 0.00 99 1015.0
20260510120507 21 48 0.0 0.0 0.00 1.07 0.00 99 1014.9
20260510120005 21 48 0.0 0.0 0.00 1.07 0.00 99 1014.9
20260510115505 20 48 0.0 0.0 0.00 1.07 0.00 99 1014.8
20260510115004 20 48 0.0 0.0 0.00 1.07 0.00 99 1014.8
20260510114502 20 48 0.0 0.0 0.00 1.07 0.00 99 1014.7
20260510114001 20 48 0.0 0.0 0.00 1.07 0.00 99 1014.6
20260510113502 20 48 0.0 0.0 0.00 1.07 0.00 99 1014.6
20260510113004 20 48 0.0 0.0 0.00 1.07 0.00 99 1014.5
20260510112502 20 48 0.0 0.0 0.00 1.07 0.00 99 1014.5
20260510112002 20 48 0.0 0.0 0.00 1.07 0.00 98 1014.5
20260510111502 20 48 0.0 0.0 0.00 1.07 0.00 98 1014.3
20260510111004 20 49 0.0 0.0 0.00 1.07 0.00 98 1014.2
20260510110502 20 49 0.0 0.0 0.00 1.07 0.00 98 1014.2
20260510110013 20 49 0.0 0.0 0.00 1.07 0.00 98 1014.2
20260510105504 20 49 0.0 0.0 0.00 1.07 0.00 98 1014.2
20260510105002 20 49 0.0 0.0 0.00 1.07 0.00 98 1014.1
20260510104502 20 49 0.0 0.0 0.00 1.07 0.00 98 1013.9
20260510104002 20 49 0.0 0.0 0.00 1.07 0.00 98 1014.0
20260510103502 20 49 0.0 0.0 0.00 1.07 0.00 98 1013.9
20260510103002 20 49 0.0 0.0 0.00 1.07 0.00 98 1013.7
20260510102504 20 49 0.0 0.0 0.00 1.07 0.00 98 1013.7
20260510102005 20 49 0.0 0.0 0.00 1.07 0.00 98 1013.6
20260510101502 20 49 0.0 0.0 0.00 1.07 0.00 98 1013.7
20260510101002 20 49 0.0 0.0 0.00 1.07 0.00 98 1013.4
20260510100502 20 49 0.0 0.0 0.00 1.07 0.00 98 1013.5
20260510100006 20 49 0.0 0.0 0.00 1.07 0.00 98 1013.5
20260510095502 20 49 0.0 0.0 0.00 1.07 0.00 98 1013.4
20260510095001 20 49 0.0 0.0 0.00 1.07 0.00 98 1013.5
20260510094504 20 49 0.0 0.0 0.00 1.07 0.00 98 1013.4
20260510094002 20 49 0.0 0.0 0.00 1.07 0.00 98 1013.4
20260510093502 20 49 0.0 0.0 0.00 1.07 0.00 98 1013.3
20260510093002 20 49 0.0 0.0 0.00 1.07 0.00 98 1013.2
20260510092502 20 49 0.0 0.0 0.00 1.07 0.00 98 1013.3
20260510092001 20 49 0.0 0.0 0.00 1.07 0.00 98 1013.4
20260510091505 20 49 0.0 0.0 0.00 1.07 0.00 98 1013.3
20260510091002 20 49 0.0 0.0 0.00 1.07 0.00 98 1013.3
20260510090502 20 49 0.0 0.0 0.00 1.07 0.00 98 1013.1
20260510050006 21 49 0.0 0.0 0.00 1.07 0.00 98 1014.3
20260510045506 20 49 0.0 0.0 0.00 1.07 0.00 98 1014.4
20260510045006 20 49 0.0 0.0 0.00 1.07 0.00 98 1014.5
20260510044505 21 49 0.0 0.0 0.00 1.07 0.00 98 1014.5
20260510044005 21 49 0.0 0.0 0.00 1.07 0.00 98 1014.4
20260510043505 20 49 0.0 0.0 0.00 1.07 0.00 98 1014.3
20260510043005 21 49 0.0 0.0 0.00 1.07 0.00 98 1014.4
20260510042505 21 49 0.0 0.0 0.00 1.07 0.00 98 1014.6
20260510042005 21 49 0.0 0.0 0.00 1.07 0.00 97 1014.6
20260510041508 21 49 0.0 0.0 0.00 1.07 0.00 98 1014.6
20260510041005 21 49 0.0 0.0 0.00 1.07 0.00 97 1014.5
20260510040505 21 49 0.0 0.0 0.00 1.07 0.00 97 1014.5
20260510040010 21 49 0.0 0.0 0.00 1.07 0.00 97 1014.4
20260510035505 21 49 0.0 0.0 0.00 1.07 1.07 97 1014.5
20260510035005 21 49 0.0 0.0 0.00 1.07 1.07 97 1014.6
20260510034505 21 49 0.0 0.0 0.00 1.07 1.07 97 1014.6
20260510034008 21 49 0.0 0.0 0.00 1.07 1.07 97 1014.5
20260510033505 21 49 0.0 0.0 0.00 1.07 1.07 97 1014.6
20260510033005 21 49 0.0 0.0 0.00 1.07 1.07 97 1014.6
20260510032505 21 49 0.0 0.0 0.00 1.07 1.07 97 1014.6
20260510032005 21 49 0.0 0.0 0.00 1.07 1.07 97 1014.6
20260510031509 21 49 0.0 0.0 0.00 1.07 1.07 97 1014.5
20260510031004 21 49 0.0 0.0 0.00 1.07 1.07 97 1014.6
20260510030505 21 49 0.0 0.0 0.00 1.07 1.07 97 1014.7
20260510030006 21 49 0.0 0.0 0.00 1.07 1.07 97 1014.5
20260510025504 21 49 0.0 0.0 0.00 1.07 1.07 97 1014.3
20260510025004 21 49 0.0 0.0 0.00 1.07 1.07 97 1014.3
20260510024505 21 49 0.0 0.0 0.00 1.07 1.07 97 1014.4
20260510024006 21 49 0.0 0.0 0.00 1.07 1.07 98 1014.2
20260510023504 21 49 0.0 0.0 0.00 1.07 1.07 98 1014.2
20260510023007 21 49 0.0 0.0 0.00 1.07 1.07 97 1014.0
20260510022504 22 49 0.0 0.0 0.00 1.07 1.07 97 1014.1
20260510022004 22 49 0.0 0.0 0.00 1.07 1.07 97 1014.1
20260510021517 22 49 0.0 0.0 0.00 1.07 1.07 97 1014.1
20260510021004 22 49 0.0 0.0 0.00 1.07 1.07 97 1014.1
20260510020504 22 49 0.0 0.0 0.00 1.07 1.07 97 1014.1
20260510020006 22 49 0.0 0.0 0.00 1.07 1.07 97 1013.8
20260510015507 22 49 0.0 0.0 0.00 1.07 1.07 97 1013.9
20260510015004 22 49 0.0 0.0 0.00 1.07 1.07 97 1013.7
20260510014506 22 49 0.0 0.0 0.00 1.07 1.07 97 1013.9
20260510014004 22 49 0.0 0.0 0.00 1.07 1.07 97 1013.5
20260510013504 22 49 0.0 0.0 0.00 1.07 1.07 97 1013.5
20260510013004 22 49 0.0 0.0 0.00 1.07 1.07 97 1013.5
20260510012504 22 49 0.0 0.0 0.00 1.07 1.07 97 1013.6
20260510012006 22 49 0.0 0.0 0.00 1.07 1.07 97 1013.5
20260510011504 22 49 0.0 0.0 0.00 1.07 1.07 97 1013.5
20260510011003 22 49 0.0 0.0 0.00 1.07 1.07 97 1013.5
20260510010504 22 49 0.0 0.0 0.00 1.07 1.07 97 1013.6
20260510010006 22 49 0.0 0.0 0.00 1.07 1.07 97 1013.5
20260510005504 22 49 0.0 0.0 0.00 1.07 1.07 96 1013.5
20260510005004 22 49 0.0 0.0 0.00 1.07 1.07 97 1013.5
20260510004504 22 49 0.0 0.0 0.00 1.07 1.07 96 1013.4
20260510004004 22 49 0.0 0.0 0.00 1.07 1.07 96 1013.3
20260510003504 22 49 0.0 0.0 0.00 1.07 1.07 96 1013.3
20260510003005 22 49 0.0 0.0 0.00 1.07 1.07 96 1013.1
20260510002503 22 49 0.0 0.0 0.00 1.07 1.07 96 1013.2
20260510002006 22 49 0.0 0.0 0.00 1.07 1.07 96 1013.1
20260510001508 22 49 0.0 0.0 0.00 1.07 1.07 96 1013.1
20260510001004 22 49 0.0 0.0 0.00 1.07 1.07 96 1013.0
20260510000504 22 49 0.0 0.0 0.00 1.07 1.07 96 1013.1
20260510000006 22 49 0.0 0.0 0.00 1.07 1.07 96 1012.9
20260509235505 22 49 0.0 0.0 0.00 1.07 1.07 96 1012.8
20260509235005 22 49 0.0 0.0 0.00 1.07 1.07 96 1012.7
20260509234504 22 49 0.0 0.0 0.00 1.07 1.07 96 1012.8
20260509234006 22 49 0.0 0.0 0.00 1.07 1.07 96 1012.5
20260509233503 22 49 0.0 0.0 0.00 1.07 1.07 96 1012.7
20260509233004 22 49 0.0 0.0 0.00 1.07 1.07 96 1012.7
20260509232504 22 49 0.0 0.0 0.00 1.07 1.07 96 1012.6
20260509232007 22 49 0.0 0.0 0.00 1.07 1.07 96 1012.6
20260509231504 22 49 0.0 0.0 0.00 1.07 1.07 96 1012.6
20260509231008 22 49 0.0 0.0 0.00 1.07 1.07 96 1012.6
20260509230504 22 49 0.0 0.0 0.00 1.07 1.07 96 1012.5
20260509230009 22 49 0.0 0.0 0.00 1.07 1.07 96 1012.4
20260509225503 22 49 0.0 0.0 0.00 1.45 1.07 96 1012.4
20260509225004 22 49 0.0 0.0 0.00 1.45 1.07 96 1012.3
20260509224507 22 49 0.0 0.0 0.00 1.45 1.07 96 1012.3
20260509224004 22 49 0.0 0.0 0.00 1.45 1.07 95 1012.2
20260509223504 22 49 0.0 0.0 0.00 1.45 1.07 96 1012.2
20260509223008 22 49 0.0 0.0 0.00 1.45 1.07 96 1012.3
20260509222503 22 49 0.0 0.0 0.00 1.45 1.07 96 1012.2
20260509222008 22 49 0.0 0.0 0.00 1.45 1.07 96 1012.1
20260509221504 22 49 0.0 0.0 0.00 1.45 1.07 95 1012.1
20260509221004 22 28 0.0 0.0 0.00 1.45 1.07 96 1012.3
20260509220504 22 28 0.0 0.0 0.00 1.45 1.07 96 1012.2
20260509220009 22 28 0.0 0.0 0.00 1.45 1.07 96 1012.3
20260509215504 22 28 0.0 0.0 2.57 0.00 1.07 95 1012.4
20260509215002 22 28 0.0 0.0 0.00 3.84 1.07 96 1012.2
20260509214504 22 28 0.0 0.0 0.00 3.84 1.07 96 1012.2
20260509214003 22 28 0.0 3.2 0.00 3.84 1.07 96 1012.2
20260509213503 22 28 0.0 3.2 0.00 3.84 1.07 96 1012.3
20260509213003 22 123 0.0 1.6 0.00 3.84 1.07 96 1012.1
20260509212502 22 123 0.0 1.6 0.00 3.84 1.07 96 1012.1
20260509212002 22 51 0.0 3.2 0.00 3.84 1.07 96 1012.1
20260509211505 22 52 0.0 3.2 0.00 3.84 1.07 96 1012.4
20260509211003 22 11 0.0 3.2 0.00 3.84 1.07 96 1012.2
20260509210503 22 11 0.0 3.2 0.00 3.84 1.07 96 1012.1
20260509210007 22 325 0.0 4.8 0.00 3.84 1.07 96 1012.1
20260509205504 22 313 0.0 6.4 0.00 3.84 1.07 95 1012.1
20260509205005 22 325 1.6 6.4 0.00 3.84 1.07 95 1012.1
20260509204505 22 355 0.0 8.0 0.03 3.84 1.07 96 1012.0
20260509204004 22 345 0.0 8.0 0.46 3.84 1.07 96 1012.2
20260509203504 22 195 0.0 4.8 1.02 3.84 1.07 96 1012.2
20260509203005 22 11 0.0 3.2 1.04 3.84 1.07 96 1012.1
20260509202504 22 331 0.0 4.8 1.04 3.84 1.07 95 1012.1
20260509202004 22 295 1.6 3.2 1.07 3.84 1.07 95 1012.2
20260509201504 22 192 0.0 0.0 1.07 3.84 1.07 94 1011.7
20260509201006 22 192 0.0 0.0 1.07 3.84 1.07 94 1011.8
20260509200508 22 192 0.0 1.6 1.07 3.84 1.07 94 1011.8
20260509200006 22 192 0.0 6.4 1.07 3.84 1.07 93 1011.8
20260509195504 22 192 3.2 14.5 1.07 3.84 1.07 92 1011.8
20260509195004 22 312 4.8 29.0 1.07 3.84 1.07 91 1011.7
20260509194505 22 333 9.7 29.0 1.04 3.81 1.04 89 1011.5
20260509194011 24 360 8.0 17.7 0.61 3.38 0.61 85 1012.4
20260509193505 26 281 1.6 16.1 0.05 2.82 0.05 87 1012.3
20260509193005 27 355 0.0 0.0 0.03 2.79 0.03 85 1011.9
20260509192504 27 355 0.0 1.6 0.03 2.79 0.03 84 1011.8
20260509192004 27 355 0.0 1.6 0.00 2.77 0.00 81 1011.7
20260509191504 28 355 0.0 4.8 0.00 2.77 0.00 78 1011.2
20260509191006 28 339 0.0 4.8 0.00 2.77 0.00 76 1011.6
20260509190507 28 347 0.0 3.2 0.00 2.77 0.00 75 1011.5
20260509190006 28 347 0.0 4.8 0.00 2.77 0.00 73 1011.5
20260509185504 28 355 1.6 4.8 0.00 2.77 0.00 73 1011.6
20260509185003 28 312 0.0 4.8 0.00 2.77 0.00 72 1011.7
20260509184510 29 345 1.6 4.8 0.00 2.77 0.00 73 1011.8
20260509184005 29 335 0.0 4.8 0.00 2.77 0.00 72 1011.8
20260509183503 29 285 1.6 4.8 0.00 2.77 0.00 72 1012.0
20260509183004 29 15 1.6 4.8 0.00 2.77 0.00 72 1011.8
20260509182504 29 17 1.6 6.4 0.00 2.77 0.00 74 1012.1
20260509182003 29 211 0.0 6.4 0.00 2.77 0.00 72 1012.2
20260509181503 29 351 1.6 6.4 0.00 2.77 0.00 72 1012.3
20260509181004 29 355 1.6 4.8 0.00 2.77 0.00 73 1012.4
20260509180503 28 325 0.0 4.8 0.00 2.77 0.00 75 1012.4
20260509180005 28 325 0.0 4.8 0.00 2.77 0.00 76 1012.5
20260509175506 28 20 3.2 4.8 0.00 2.77 0.00 74 1012.6
20260509175003 28 329 1.6 6.4 0.00 2.77 0.00 74 1012.7
20260509174503 28 193 0.0 6.4 0.00 2.77 0.00 76 1012.7
20260509174003 28 310 0.0 1.6 0.00 2.77 0.00 74 1012.7
20260509173503 28 310 0.0 4.8 0.00 2.77 0.00 75 1012.7
20260509173003 28 310 0.0 4.8 0.00 2.77 0.00 75 1012.7
20260509172504 28 355 0.0 4.8 0.00 2.77 0.00 76 1012.8
20260509172003 28 320 1.6 6.4 0.00 2.77 0.00 76 1012.8